NOAA 16 DEB

Satellite information

Favourite Embed

Satellite Type and Status

DEBRISIN ORBIT

Key statistics

Satellite NOAA 16 DEB at a glance.

Uptime

8996

Days in orbit

Revolutions

≈ 14.1

Per day

Orbit

SSO

Sun Synchronous Orbit

Inclination

98.8

Latest

Satellite identification and parameters

Extended collection of information and parameters for NOAA 16 DEB.

Object identification

Identified? True

Debris? True

Object name: NOAA 16 DEB

International designator: 2000-055RU

Object number (NORAD): 42376

Object ID (CCSDS): 42376

Country: UNITED STATES OF AMERICA (US)

Current information (Y/N): Y

RCS size: SMALL

Orbital parameters

Period: 101.91 minutes

Inclination: 98.784 deg

SMA: 7227.2 km

Apoapsis: 911.648 km

Periapsis: 786.482 km

RAAN: 71.1285 deg

Eccentricy: 0.0086594

Argument of periapsis: 235.495 deg

Mean anomaly: 123.8024 deg

Mean motion: 14.1301781 rev/day

Mean motion (dot): 0.00012355 rev/day2

B* drag term: 0.0064046 1/REarth

Two-line elements (TLE)

Creation date: May 2, 2025, 10:26 p.m.

Reference frame: TEME

Reference center: EARTH

Epoch: May 2, 2025, 2:01 p.m. UTC

TLE line 0: 0 NOAA 16 DEB

TLE line 1: 1 42376U 00055RU 25122.58453936 .00012355 00000-0 64046-2 0 9995

TLE line 2: 2 42376 98.7840 71.1285 0086594 235.4950 123.8024 14.13017810470281

Live tracking on map

Real-time ground track for satellite NOAA 16 DEB.

In-orbit conjunctions

A list of the most updated potential collisions computed for object NOAA 16 DEB.

Target Orbit TCA Probability of collision Miss distance Type
SL-3 DEB LEO 2025-04-20 18:04:42 0.0001121084 337.0 (m) DEBRIS

Associated space launch

The NOAA K, L and M POES satellites begin the fifth generation of improved environmental monitoring in support of NOAA missions. The instrument payload has significant improvements and additions/deletions. The instrument changes have effected the spacecraft subsystems and data formats.

NOAA 16 DEB was lifted into orbit during the mission ‘Titan II SLV | NOAA 16’, on board a Titan II SLV space rocket.

The launch took place on Sept. 21, 2000, 10:22 a.m. from Space Launch Complex 4W.

For more information about the launch, click the button.

Launch to space Titan II SLV | NOAA 16
Titan II SLV | NOAA 16

Agency: N/A

Status: Launch Successful

Launch date: Sept. 21, 2000, 10:22 a.m. UTC

Rocket: Titan II SLV

Launch pad: Space Launch Complex 4W

Location: Vandenberg SFB, CA, USA

...

Latest news about this satellite

There are no fresh news available about this satellite. Check back as we update our databases every day.


Newsletter sign-up

Weekly statistics, charts and insights to help you stay on top of the space industry.